Lexington Weather

Lexington, Massachusetts, USA

47°F
12/8/2022 3:36pm 
  • Lexington Conditions: Clear
  • Temperature: 46.8°F / 8.2°CColder 1.9°F than last hour.
  • Dew Point: 34.5°FDecreased 0.9°Fsince last hour.
  • Relative Humidity: 62%Increased 2.0% since last hour.
  • Wind: Wind from NNW NNW Calm, 10-min avg: 3 mph, gust: 12 mph
  • Barometer: 30.10 inRising 0.03  inHg/hr Rising Slowly
  • Visibility: 10 miles
  • Rain Today: 0.00 in
  •   

Warning: Undefined variable $rc in /homepages/6/d276339138/htdocs/weather/20190804/ssi/nwsProduct.php on line 323

Warning: Undefined variable $rc in /homepages/6/d276339138/htdocs/weather/20190804/ssi/nwsProduct.php on line 325

Warning: Undefined variable $rc in /homepages/6/d276339138/htdocs/weather/20190804/ssi/nwsProduct.php on line 323

Warning: Undefined variable $rc in /homepages/6/d276339138/htdocs/weather/20190804/ssi/nwsProduct.php on line 325

Warning: Undefined variable $rc in /homepages/6/d276339138/htdocs/weather/20190804/ssi/nwsProduct.php on line 323

Warning: Undefined variable $rc in /homepages/6/d276339138/htdocs/weather/20190804/ssi/nwsProduct.php on line 325

Warning: Undefined variable $rc in /homepages/6/d276339138/htdocs/weather/20190804/ssi/nwsProduct.php on line 323

Warning: Undefined variable $rc in /homepages/6/d276339138/htdocs/weather/20190804/ssi/nwsProduct.php on line 325

Warning: Undefined variable $rc in /homepages/6/d276339138/htdocs/weather/20190804/ssi/nwsProduct.php on line 323

Warning: Undefined variable $rc in /homepages/6/d276339138/htdocs/weather/20190804/ssi/nwsProduct.php on line 325

Warning: Undefined variable $rc in /homepages/6/d276339138/htdocs/weather/20190804/ssi/nwsProduct.php on line 323

Warning: Undefined variable $rc in /homepages/6/d276339138/htdocs/weather/20190804/ssi/nwsProduct.php on line 325

Warning: Undefined variable $rc in /homepages/6/d276339138/htdocs/weather/20190804/ssi/nwsProduct.php on line 323

Warning: Undefined variable $rc in /homepages/6/d276339138/htdocs/weather/20190804/ssi/nwsProduct.php on line 325

Regional Weather Roundup
for Boston, MA

        
000
ASUS41 KBOX 080510
RWRBOX

REGIONAL WEATHER ROUNDUP
NATIONAL WEATHER SERVICE BOSTON/NORTON MA
1200 AM EST THU DEC 08 2022

NOTE:  "FAIR" INDICATES FEW OR NO CLOUDS BELOW 12,000 FEET WITH NO 
SIGNIFICANT WEATHER AND/OR OBSTRUCTIONS TO VISIBILITY.

MAZALL-080600-
EASTERN MASSACHUSETTS
  
CITY           SKY/WX    TMP DP  RH WIND       PRES   REMARKS
BOSTON         MOCLDY    58  55  90 W10       30.00S                  
BEVERLY        CLOUDY    56  55  97 W6        29.98S                  
LAWRENCE       CLOUDY    56  54  93 W3        30.01S                  
BEDFORD        CLOUDY    57  54  89 W7        29.99S                  
NORWOOD        CLEAR     57  54  89 W6        30.00S                  
MARSHFIELD       N/A     57  55  94 VRB6      29.98F                  
PLYMOUTH       CLOUDY    57  56  96 W7        29.99F                  
TAUNTON          N/A    N/A N/A N/A MISG      30.00F                  
NEW BEDFORD    CLOUDY    57  57 100 W8        29.99F                  
$$

MAZALL-080600-
CAPE COD AND THE ISLANDS
  
CITY           SKY/WX    TMP DP  RH WIND       PRES   REMARKS
FALMOUTH       NOT AVBL                                               
HYANNIS        CLOUDY    55  55 100 W8        29.98S FOG              
CHATHAM        FOG       54  53  97 SW5       29.99F VSB 1            
PROVINCETOWN   CLOUDY    53  53 100 SW7       29.99F FOG              
NANTUCKET      FOG      N/A N/A N/A W15       30.00F VSB 1/2          
MARTHAS VNYRD  CLOUDY    56  55  97 W9        30.01S FOG              
$$
 
MAZALL-080600-
CENTRAL AND WESTERN MASSACHUSETTS
  
CITY           SKY/WX    TMP DP  RH WIND       PRES   REMARKS
WORCESTER      MOCLDY    54  50  86 W12       30.03S                  
FITCHBURG      MOCLDY    54  50  86 NW7       30.02S                  
ORANGE         PTCLDY    53  49  86 W9        30.05S                  
SPRINGFIELD    CLOUDY    53  48  84 NW9       30.04R                  
WESTFIELD      CLEAR     52  46  80 NW21G32   30.06S                  
NORTH ADAMS    CLOUDY    50  45  83 W14       30.10S                  
PITTSFIELD     CLOUDY    46  43  89 W8G18     30.10R                  
$$
 
RIZALL-080600-
RHODE ISLAND
  
CITY           SKY/WX    TMP DP  RH WIND       PRES   REMARKS
PROVIDENCE     PTCLDY    56  55  97 W9        30.01F                  
NEWPORT        CLOUDY    55  54  96 NW6       30.01F FOG              
BLOCK ISLAND   CLOUDY    52  52 100 W13G18    30.05S FOG              
SMITHFIELD     CLOUDY    56  55  97 W9        30.02S                  
WESTERLY       FOG       53  53 100 W3        30.03F VSB 1/4          
$$
 
CTZALL-080600-
CONNECTICUT
  
CITY           SKY/WX    TMP DP  RH WIND       PRES   REMARKS
BRADLEY INTL   PTCLDY    54  46  74 NW15G22   30.07R                  
HARTFORD       CLEAR     57  47  69 NW15G25   30.07R                  
BRIDGEPORT     CLOUDY    51  51 100 SW5       30.08S                  
DANBURY        CLOUDY    54  52  93 CALM      30.10S                  
GROTON         PTCLDY    56  54  93 W6        30.04S FOG              
NEW HAVEN      CLOUDY    55  54  96 VRB3      30.06F FOG              
CHESTER        MOCLDY    55  55 100 NW6G15    30.06R                  
MERIDEN        MOCLDY    57  50  77 N13G20    30.07S                  
WILLIMANTIC    MOCLDY    57  51  80 NW12G23   30.05S                  
OXFORD         CLOUDY    54  52  94 NW7       30.09R                  
$$

MEZ002-015-021-024-NHZ003-005-008-011-012-014-VTZ005-008-080600-
NORTHERN NEW ENGLAND
  
CITY           SKY/WX    TMP DP  RH WIND       PRES   REMARKS
PORTLAND ME    CLOUDY    47  47 100 NW6       29.98S                  
BANGOR ME      CLOUDY    50  50 100 W3        29.96F                  
CONCORD NH     CLOUDY    47  46  97 N7        30.02S                  
MANCHESTER NH  PTCLDY    50  48  93 N3        30.00S                  
NASHUA NH      FOG       52 N/A N/A CALM      30.02R VSB 1/2          
PORTSMOUTH NH  PTCLDY    52  52 100 W8        29.98                   
JAFFREY NH     CLOUDY    55  51  86 VRB3      30.03R                  
KEENE NH       CLOUDY    54  52  93 NW5         N/A                   
BURLINGTON VT  CLOUDY    44  41  89 N7        30.14R                  
MT. WASHINGTON FOG       30  30 100 NW54        N/A  VSB 0   WCI  11  
$$

NYZ052-076-080600-
EASTERN NEW YORK
  
CITY           SKY/WX    TMP DP  RH WIND       PRES   REMARKS
ALBANY         MOCLDY    48  43  82 W13       30.15R                  
NEW YORK CITY  PTCLDY    56  49  77 W15       30.10F                  
$$
 
ANZALL-080600-
MARINE OBSERVATIONS
  
STATION/POSITION TIME  TEMP    WIND        PRES    VSBY  WAVE
                       AIR SEA DIR/SP/G                  HT/PER
                 (UTC) (F)     (DEG/KT/KT) (MB)    (MI)  (FT/S)
BOSTON BUOY      0450      50  260/  8/ 10 1015.7F         4/ 9
BUZZARDS BAY     0400   53     260/ 19/ 21 1016.8F
NANTUCKET SOUND  0450   53 49  260/ 12/ 16 1015.6F         2/ 7
MASS BAY-STELLWA 0304   52 50  220/  6/  8 1015.1F  1 7/8  5/ 8
ISLE OF SHOALS   0400   55     270/ 12/ 13 1014.5F
S OF BLOCK IS    0456      55                N/A           5/11
$$

......................KEY.........................
  SKY/WX - SKY CONDITION/PRESENT WEATHER
  TMP    - TEMPERATURE IN FAHRENHEIT
  DWPT   - DEWPOINT IN FAHRENHEIT
  RH     - RELATIVE HUMIDITY IN PERCENT
  WIND   - DIRECTION AND SPEED IN MPH
  PRES   - MEAN SEA LEVEL PRESSURE IN INCHES OF HG
  WCI    - WIND CHILL INDEX
  VSB    - VISIBILITY IN MILES
  HX     - HEAT INDEX
  TC     - TEMPERATURE IN CELSIUS
  VRB    - VARIABLE WIND DIRECTION
  N/A    - NOT AVAILABLE
  
      

Other recent Regional Weather Roundups

Thu Dec 8, 3:10pm

Thu Dec 8, 2:10pm

Thu Dec 8, 1:10pm

Thu Dec 8, 12:10pm

Thu Dec 8, 11:10am

Thu Dec 8, 10:10am

Thu Dec 8, 9:10am

Thu Dec 8, 8:10am

Thu Dec 8, 7:10am

Thu Dec 8, 6:10am

Thu Dec 8, 5:10am

Thu Dec 8, 4:10am

Thu Dec 8, 3:10am

Thu Dec 8, 2:10am

Thu Dec 8, 1:10am

Wed Dec 7, 11:10pm

Wed Dec 7, 10:10pm

Wed Dec 7, 9:10pm

Wed Dec 7, 8:10pm

Wed Dec 7, 7:10pm

Wed Dec 7, 6:10pm

Wed Dec 7, 5:10pm

Wed Dec 7, 4:10pm

Wed Dec 7, 3:10pm

Wed Dec 7, 2:10pm

Wed Dec 7, 1:10pm

Wed Dec 7, 12:10pm

Wed Dec 7, 11:10am

Wed Dec 7, 10:10am

Wed Dec 7, 9:10am

Wed Dec 7, 8:10am

Wed Dec 7, 7:10am

Wed Dec 7, 6:10am

Wed Dec 7, 5:10am

Wed Dec 7, 4:10am

Wed Dec 7, 3:10am

Wed Dec 7, 2:10am

Wed Dec 7, 1:10am

Wed Dec 7, 12:10am

Tue Dec 6, 11:10pm

Tue Dec 6, 10:10pm

Tue Dec 6, 9:10pm

Tue Dec 6, 8:10pm

Tue Dec 6, 7:10pm

Tue Dec 6, 6:10pm

Tue Dec 6, 5:10pm

Tue Dec 6, 4:10pm

Tue Dec 6, 3:10pm

Tue Dec 6, 2:10pm

Tue Dec 6, 1:10pm

Tue Dec 6, 12:10pm

Tue Dec 6, 11:10am

Tue Dec 6, 10:10am

Tue Dec 6, 9:10am

Tue Dec 6, 8:10am

Tue Dec 6, 7:10am

Tue Dec 6, 6:10am

Tue Dec 6, 5:10am

Tue Dec 6, 4:10am

Tue Dec 6, 3:10am

Tue Dec 6, 2:10am

Tue Dec 6, 1:10am

Tue Dec 6, 12:10am

Mon Dec 5, 11:10pm

Mon Dec 5, 10:10pm

Mon Dec 5, 9:10pm

Mon Dec 5, 8:10pm

Mon Dec 5, 7:10pm

Mon Dec 5, 6:10pm

Mon Dec 5, 5:10pm

Mon Dec 5, 4:10pm

Mon Dec 5, 3:10pm

Mon Dec 5, 2:10pm

Mon Dec 5, 1:10pm

Mon Dec 5, 12:10pm

Mon Dec 5, 11:10am

Mon Dec 5, 10:10am

Mon Dec 5, 9:10am

Mon Dec 5, 8:10am

Mon Dec 5, 7:10am

Mon Dec 5, 6:10am

Mon Dec 5, 5:10am

Mon Dec 5, 4:10am

Mon Dec 5, 3:10am

Mon Dec 5, 2:10am

Mon Dec 5, 1:10am

Mon Dec 5, 12:10am

Sun Dec 4, 11:10pm

Sun Dec 4, 10:10pm

Sun Dec 4, 9:10pm

Sun Dec 4, 8:10pm

Sun Dec 4, 7:10pm

Sun Dec 4, 6:10pm

Sun Dec 4, 5:10pm

Sun Dec 4, 4:10pm

Sun Dec 4, 3:10pm

Sun Dec 4, 2:10pm

Sun Dec 4, 1:10pm

Sun Dec 4, 12:10pm

Sun Dec 4, 11:10am

Sun Dec 4, 10:10am

Sun Dec 4, 9:10am

Sun Dec 4, 8:10am

Sun Dec 4, 7:10am

Sun Dec 4, 6:10am

Sun Dec 4, 5:10am

Sun Dec 4, 4:10am

Sun Dec 4, 3:10am

Sun Dec 4, 2:10am

Sun Dec 4, 1:10am

Sun Dec 4, 12:10am

Sat Dec 3, 11:10pm

Sat Dec 3, 10:10pm

Sat Dec 3, 9:10pm

Sat Dec 3, 8:10pm

Sat Dec 3, 7:10pm

Sat Dec 3, 6:10pm

Sat Dec 3, 5:10pm

Sat Dec 3, 4:10pm

Sat Dec 3, 3:10pm

Sat Dec 3, 2:10pm

Sat Dec 3, 1:10pm

Sat Dec 3, 12:10pm

Sat Dec 3, 11:10am

Sat Dec 3, 10:10am

Sat Dec 3, 9:10am

Sat Dec 3, 8:10am

Sat Dec 3, 7:10am

Sat Dec 3, 6:10am

Sat Dec 3, 5:10am

Sat Dec 3, 4:10am

Sat Dec 3, 3:10am

Sat Dec 3, 2:10am

Sat Dec 3, 1:10am

Sat Dec 3, 12:10am

Fri Dec 2, 11:10pm

Fri Dec 2, 10:10pm

Fri Dec 2, 9:10pm

Fri Dec 2, 8:10pm

Fri Dec 2, 7:10pm

Fri Dec 2, 6:10pm

Fri Dec 2, 5:10pm

Fri Dec 2, 4:10pm

Fri Dec 2, 3:10pm

Fri Dec 2, 2:10pm

Fri Dec 2, 1:10pm

Fri Dec 2, 12:10pm

Fri Dec 2, 11:10am

Fri Dec 2, 10:10am

Fri Dec 2, 9:10am

Fri Dec 2, 8:10am

Fri Dec 2, 7:10am

Fri Dec 2, 6:10am

Fri Dec 2, 5:10am

Fri Dec 2, 4:10am

Fri Dec 2, 3:10am

Fri Dec 2, 2:10am

Fri Dec 2, 1:10am

Fri Dec 2, 12:10am

Thu Dec 1, 11:10pm

Thu Dec 1, 10:10pm

Thu Dec 1, 9:10pm

Thu Dec 1, 8:10pm

Thu Dec 1, 7:10pm

Thu Dec 1, 6:10pm

Thu Dec 1, 5:10pm

Thu Dec 1, 4:10pm

Meta data:

ID: 026907da-cc31-4d7f-9e9e-2d2705b6bb0f
Link: https://api.weather.gov/products/026907da-cc31-4d7f-9e9e-2d2705b6bb0f